DELTA 1 DEB

Satellite information

Favourite Embed

Satellite Type and Status

DEBRISIN ORBIT

Key statistics

Satellite DELTA 1 DEB at a glance.

Uptime

18813

Days in orbit

Revolutions

≈ 14.0

Per day

Orbit

SSO

Sun Synchronous Orbit

Inclination

102.6

Latest

Satellite identification and parameters

Extended collection of information and parameters for DELTA 1 DEB.

Object identification

Identified? True

Debris? True

Object name: DELTA 1 DEB

International designator: 1973-086GR

Object number (NORAD): 14480

Object ID (CCSDS): 14480

Country: UNITED STATES OF AMERICA (US)

Current information (Y/N): Y

RCS size: SMALL

Orbital parameters

Period: 103.15 minutes

Inclination: 102.5965 deg

SMA: 7285.724 km

Apoapsis: 931.021 km

Periapsis: 884.157 km

RAAN: 168.5298 deg

Eccentricy: 0.0032161

Argument of periapsis: 316.0304 deg

Mean anomaly: 64.4444 deg

Mean motion: 13.96026592 rev/day

Mean motion (dot): 0.00023713 rev/day2

B* drag term: 0.017217 1/REarth

Two-line elements (TLE)

Creation date: May 8, 2025, 10:56 p.m.

Reference frame: TEME

Reference center: EARTH

Epoch: May 8, 2025, 8:30 a.m. UTC

TLE line 0: 0 DELTA 1 DEB

TLE line 1: 1 14480U 73086GR 25128.35464854 .00023713 00000-0 17217-1 0 9993

TLE line 2: 2 14480 102.5965 168.5298 0032161 316.0304 64.4444 13.96026592 4021

Live tracking on map

Real-time ground track for satellite DELTA 1 DEB.

In-orbit conjunctions

A list of the most updated potential collisions computed for object DELTA 1 DEB.

Target Orbit TCA Probability of collision Miss distance Type
SL-16 DEB LEO 2025-03-12 14:29:14 0.000280974 63.0 (m) DEBRIS
COSMOS 1275 DEB LEO 2024-11-12 17:43:05 0.0002373085 539.0 (m) DEBRIS

Associated space launch

Meteorological satellite using radiometric imaging

DELTA 1 DEB was lifted into orbit during the mission ‘Delta 0300 | NOAA 3’, on board a Delta 0300 space rocket.

The launch took place on Nov. 6, 1973, 5:02 p.m. from Space Launch Complex 2W.

For more information about the launch, click the button.

Launch to space Delta 0300 | NOAA 3
Delta 0300 | NOAA 3

Agency: N/A

Status: Launch Successful

Launch date: Nov. 6, 1973, 5:02 p.m. UTC

Rocket: Delta 0300

Launch pad: Space Launch Complex 2W

Location: Vandenberg SFB, CA, USA

...

Latest news about this satellite

There are no fresh news available about this satellite. Check back as we update our databases every day.


Newsletter sign-up

Weekly statistics, charts and insights to help you stay on top of the space industry.